#timestamp,LO_Frequency,Hit,StdDev 
1506492015.0,286047000.2,N
1506492015.9,286047000.2,N
1506492035.7,286047002.7,N
1506492055.6,286047003.9,N
1506492075.4,286047004.3,N
1506492095.2,286047003.3,N
1506492115.1,286047003.6,N
1506492116.0,286047003.6,N
1506492135.8,286047004.6,N
1506492155.6,286047006.9,N
1506492175.5,286047006.5,N
1506492195.3,286047007.4,N
1506492215.1,286047005.0,N
1506492235.9,286047003.8,N
1506492255.7,286047003.2,N
1506492275.5,286047003.9,N
1506492295.4,286047003.7,N
1506492315.2,286047001.9,N
1506492335.0,286047001.9,N
1506492335.9,286047001.9,N
1506492355.8,286047002.0,N
1506492375.6,286047004.0,N
1506492395.4,286047003.6,N
1506492415.2,286047005.4,N
1506492435.1,286047005.5,N
1506492436.0,286047005.5,N
1506492455.8,286047005.8,N
1506492475.6,286047005.6,N
1506492495.5,286047005.1,N
1506492515.3,286047006.8,Y
1506492535.1,286047003.2,P
1506492555.9,286047003.2,P
1506492575.7,286047001.4,P
1506492595.5,286047001.6,N
1506492615.4,286047004.0,Y
1506492635.2,286046998.3,P
1506492655.0,286046998.1,N
1506492655.9,286046998.1,N
1506492675.8,286046997.0,N
1506492695.6,286046997.6,N
1506492715.4,286046997.5,N
1506492735.3,286046996.8,N
1506492755.1,286046997.2,N
1506492756.0,286046997.2,N
1506492775.8,286046995.1,Y
1506492795.7,286046998.7,P
1506492815.5,286046998.2,P
1506492835.3,286046997.1,P
1506492855.2,286046999.6,N
1506492875.9,286047000.7,N
1506492895.7,286047000.5,N
1506492915.6,286047002.0,N
1506492935.4,286046999.7,N
1506492955.2,286047001.6,N
1506492975.0,286047002.5,N
1506492975.9,286047002.5,N
1506492995.8,286047002.5,N
1506493015.6,286047001.6,N
1506493035.4,286047004.4,N
1506493055.3,286047004.1,N
1506493075.1,286047005.5,N
1506493095.8,286047003.7,N
1506493115.7,286047001.3,N
1506493135.5,286047002.9,N
1506493155.3,286047002.9,N
1506493175.2,286047004.8,N
1506493195.9,286047005.3,N
1506493215.7,286047005.3,N
1506493235.5,286047005.3,N
1506493255.4,286047007.1,N
1506493275.2,286047006.3,N
1506493295.0,286047006.6,N
1506493295.9,286047006.6,N
1506493315.8,286047009.2,Y
1506493335.6,286047003.3,P
1506493355.4,286047001.7,P
1506493375.3,286047001.3,N
1506493395.1,286047002.3,N
1506493415.8,286047001.8,N
1506493435.7,286047004.2,Y
1506493455.5,286047002.2,P
1506493475.3,286047001.4,P
1506493495.2,286047003.8,P
1506493515.9,286047004.2,Y
1506493535.7,286046999.7,P
1506493555.6,286047001.5,N
1506493575.4,286047002.6,N
1506493595.2,286047002.0,N
1506493615.1,286046999.7,N
1506493616.0,286046999.7,N
1506493635.8,286047000.2,N
1506493655.6,286047001.2,N
1506493675.5,286047000.8,N
1506493695.3,286046999.6,N
1506493715.1,286046998.9,N
1506493735.9,286047000.9,N
1506493755.7,286047002.6,N
1506493775.5,286047001.8,N
1506493795.4,286047003.6,Y
1506493815.2,286047001.5,P
1506493835.0,286047001.6,P
1506493835.9,286047001.6,P
1506493855.8,286047002.5,Y
1506493875.6,286047002.4,P
1506493895.4,286047000.2,N
1506493915.3,286047005.9,P
1506493935.1,286047005.9,N
1506493936.0,286047005.9,N
1506493955.8,286047006.8,N
1506493975.7,286047010.4,Y
1506493995.5,286047006.6,P
1506494015.3,286047008.0,P
1506494035.2,286047010.3,P
1506494055.9,286047011.0,Y
1506494075.7,286047012.2,P
1506494095.6,286047011.7,P
1506494115.4,286047009.6,P
1506494135.2,286047010.2,Y
1506494155.1,286047003.3,P
1506494156.0,286047003.3,N
1506494175.8,286047009.0,N
1506494195.6,286047010.1,Y
1506494215.5,286047010.4,P
1506494235.3,286047007.7,P
1506494255.1,286047011.3,P
1506494275.9,286047013.7,Y
1506494295.7,286047003.4,P
1506494315.5,286047002.6,N
1506494335.4,286046998.8,N
1506494355.2,286046996.5,N
1506494375.0,286047000.9,N
1506494375.9,286047000.9,N
1506494395.8,286047000.8,N
1506494415.6,286046996.9,N
1506494435.4,286046999.5,N
1506494455.2,286046999.2,N
1506494475.1,286046998.4,N
1506494476.0,286046998.4,N
1506494495.8,286046999.8,N
1506494515.6,286047000.0,N
1506494535.5,286047000.0,N
1506494555.3,286047001.8,N
1506494575.1,286047002.7,N
1506494595.9,286047002.5,N
1506494615.7,286047002.7,N
1506494635.5,286047000.7,N
1506494655.4,286047000.4,N
1506494675.2,286046998.6,N
1506494695.0,286046997.7,N
1506494695.9,286046997.7,N
1506494715.8,286046997.2,N
1506494735.6,286047000.9,N
1506494755.4,286047000.7,N
1506494775.2,286046996.6,N
1506494795.1,286046996.9,N
1506494796.0,286046996.9,N
1506494815.8,286046995.3,N
1506494835.6,286046999.3,N
1506494855.5,286047002.3,N
1506494875.3,286047004.4,N
1506494895.1,286047006.5,Y
1506494915.9,286047010.3,P
1506494935.7,286047012.2,N
1506494955.5,286047013.3,N
1506494975.4,286047013.9,N
1506494995.2,286047011.0,N
1506495015.0,286047010.6,N
1506495015.9,286047010.6,N
1506495035.8,286047006.9,N
1506495055.6,286047001.3,N
1506495075.4,286046998.4,N
1506495095.3,286046995.6,N
1506495115.1,286046992.3,N
1506495116.0,286046992.3,N
1506495135.8,286046990.9,N
1506495155.6,286046988.8,N
1506495175.5,286046989.4,N
1506495195.3,286046988.2,N
1506495215.1,286046985.9,N
1506495235.9,286046986.5,N
1506495255.7,286046986.3,N
1506495275.5,286046985.0,N
1506495295.4,286046982.8,N
1506495315.2,286046981.3,N
1506495335.0,286046981.5,N
1506495335.9,286046981.5,N
1506495355.8,286046980.8,N
1506495375.6,286046982.6,N
1506495395.4,286046985.3,N
1506495415.3,286046986.8,N
1506495435.1,286046982.9,N
1506495436.0,286046982.9,N
1506495455.8,286046986.8,N
1506495475.7,286046989.4,N
1506495495.5,286046991.7,N
1506495515.3,286046998.0,N
1506495535.1,286046998.0,N
1506495555.9,286046994.1,N
1506495575.7,286046996.7,N
1506495595.5,286046999.2,N
